Easton, MD

7:44 PM EST on November 12, 2019 (GMT -0500)
Easton / Newnam

Weather History for KESN - October, 2019

Change the Weather History Date:

Sunday, October 20, 2019

  Actual Average Record
Temperature  
Mean Temperature 56 °F -  
Max Temperature 60 °F 64 °F 84 °F (2016)
Min Temperature 52 °F 44 °F 28 °F (1974)
Degree Days  
Heating Degree Days 9    
Growing Degree Days 6 (Base 50)    
Moisture  
Dew Point 51 °F    
Average Humidity 86    
Maximum Humidity 100    
Minimum Humidity 70    
Precipitation  
Precipitation 0.03 in - - ()
Sea Level Pressure  
Sea Level Pressure 29.97 in    
Wind  
Wind Speed 7 mph (ENE)    
Max Wind Speed 21 mph    
Max Gust Speed 26 mph    
Visibility 8 miles    
Events Rain    
Averages and records for this station are not official NWS values.
T = Trace of Precipitation, MM = Missing Value Source: NWS Daily Summary

Daily Weather History Graph

Daily Weather History Graph

Search for Another Location

Airport or City:

Astronomy

Oct. 20, 2019 Rise Set
Actual Time 7:18 AM EDT 6:19 PM EDT
Civil Twilight 6:51 AM EDT 6:46 PM EDT
Nautical Twilight 6:20 AM EDT 7:17 PM EDT
Astronomical Twilight 5:49 AM EDT 7:47 PM EDT
Moon 11:28 PM EDT (10/20) 1:41 PM EDT (10/20)
Length of Visible Light 11h 54m
Length of Day
11h 00m
Waning Gibbous, 59% of the Moon is Illuminated
Oct 20
Waning Gibbous
Oct 21
Last Quarter
Oct 27
New
Nov 4
First Quarter
Nov 12
Full

Hourly Weather History & Observations

Time (EDT) Temp. Dew Point Humidity Pressure Visibility Wind Dir Wind Speed Gust Speed Precip Events Conditions
12:19 AM 52.7 °F 43.3 °F 70% 30.07 in 10.0 mi Calm Calm - N/A   Clear
12:39 AM 52.5 °F 43.9 °F 72% 30.06 in 10.0 mi SE 3.5 mph - N/A   Clear
12:59 AM 52.7 °F 44.6 °F 74% 30.06 in 10.0 mi SE 3.5 mph - N/A   Clear
1:19 AM 52.2 °F 44.6 °F 75% 30.06 in 10.0 mi ESE 3.5 mph - N/A   Clear
1:39 AM 53.1 °F 45.0 °F 74% 30.05 in 10.0 mi SE 5.8 mph - N/A   Clear
1:59 AM 52.5 °F 45.0 °F 75% 30.05 in 10.0 mi ESE 3.5 mph - N/A   Clear
2:19 AM 52.0 °F 45.0 °F 77% 30.05 in 10.0 mi SE 4.6 mph - N/A   Clear
2:39 AM 52.0 °F 45.3 °F 78% 30.05 in 10.0 mi ESE 4.6 mph - N/A   Clear
2:59 AM 52.7 °F 45.9 °F 78% 30.03 in 10.0 mi ESE 5.8 mph - N/A   Clear
3:19 AM 53.1 °F 46.4 °F 78% 30.01 in 10.0 mi East 6.9 mph - N/A   Clear
3:39 AM 53.2 °F 46.4 °F 78% 30.01 in 10.0 mi ESE 5.8 mph - N/A   Clear
3:59 AM 53.1 °F 46.6 °F 79% 30.01 in 10.0 mi ESE 5.8 mph - N/A   Clear
4:19 AM 53.6 °F 46.9 °F 78% 30.00 in 10.0 mi ESE 4.6 mph - N/A   Scattered Clouds
4:39 AM 53.6 °F 47.3 °F 79% 30.00 in 10.0 mi ESE 5.8 mph - N/A   Scattered Clouds
4:59 AM 54.0 °F 47.3 °F 78% 29.99 in 10.0 mi East 5.8 mph - N/A   Clear
5:19 AM 54.3 °F 47.5 °F 78% 30.00 in 10.0 mi ESE 3.5 mph - N/A   Clear
5:39 AM 54.5 °F 47.8 °F 78% 30.00 in 10.0 mi East 4.6 mph - N/A   Clear
6:50 AM 55.4 °F 51.8 °F 88% 30.01 in 10.0 mi Calm Calm - N/A   Scattered Clouds
7:20 AM 53.6 °F 51.8 °F 94% 30.00 in 10.0 mi NE 4.6 mph - N/A   Overcast
7:50 AM 53.6 °F 51.8 °F 94% 30.01 in 4.0 mi NE 3.5 mph - N/A Rain Rain
8:50 AM 55.4 °F 53.6 °F 94% 30.01 in 3.0 mi NNE 4.6 mph - N/A Rain Rain
10:50 AM 57.2 °F 55.4 °F 94% 29.99 in 3.0 mi NNE 8.1 mph - N/A Rain Rain
11:50 AM 57.2 °F 57.2 °F 100% 29.96 in 3.0 mi NNE 12.7 mph - N/A Rain Heavy Rain
12:45 PM 60.8 °F 57.2 °F 88% 29.91 in 3.0 mi NNE 15.0 mph 19.6 mph N/A Rain Rain
1:50 PM 60.8 °F 59.0 °F 94% 29.87 in 4.0 mi NNE 17.3 mph - N/A Rain Rain
2:50 PM 60.8 °F 59.0 °F 94% 29.81 in 4.0 mi NE 18.4 mph 26.5 mph N/A Rain Rain
3:50 PM 60.8 °F 57.2 °F 88% 29.84 in 7.0 mi NNE 15.0 mph 23.0 mph N/A Rain Light Rain
4:18 PM 60.8 °F 57.2 °F 88% 29.84 in 2.5 mi NNE 19.6 mph 25.3 mph N/A Rain Light Rain
4:50 PM 59.0 °F 57.2 °F 94% 29.83 in 3.0 mi NNE 20.7 mph 26.5 mph N/A Rain Light Rain
5:50 PM 59.0 °F 57.2 °F 94% 29.84 in 4.0 mi North 17.3 mph 23.0 mph N/A Rain Light Rain
6:50 PM 57.2 °F 57.2 °F 100% 29.86 in 7.0 mi North 15.0 mph 25.3 mph N/A Rain Light Rain
7:50 PM 57.2 °F 55.4 °F 94% 29.88 in 7.0 mi North 16.1 mph 26.5 mph N/A Rain Light Rain
8:50 PM 57.2 °F 55.4 °F 94% 29.91 in 7.0 mi North 15.0 mph 23.0 mph N/A   Light Drizzle
9:50 PM 55.4 °F 53.6 °F 94% 29.93 in 5.0 mi North 13.8 mph 20.7 mph N/A Rain Light Rain
10:20 PM 55.4 °F 54.1 °F 96% 29.94 in 5.0 mi North 12.7 mph 23.0 mph 0.03 in   Drizzle
10:40 PM 55.6 °F 54.1 °F 95% 29.94 in 7.0 mi North 16.1 mph 19.6 mph 0.03 in   Light Drizzle
11:00 PM 55.6 °F 54.1 °F 95% 29.94 in 7.0 mi NNE 12.7 mph 19.6 mph N/A Rain Light Rain
11:20 PM 55.8 °F 54.1 °F 94% 29.94 in 10.0 mi NNE 12.7 mph 21.9 mph N/A   Overcast
11:40 PM 56.3 °F 54.0 °F 92% 29.95 in 10.0 mi North 15.0 mph - N/A   Overcast